This is the latest recevied weather packets stored in our database for station/object HS5BOG-13. If no packets are shown the sender has not sent any weather packets the latest 1 day(s).
| Time | Temp. | Humidity | Pressure | Rain* | Wind** | Luminosity | Snow |
|---|---|---|---|---|---|---|---|
| 1778099810 | 30.56° C | 72% | 990.5 hPa | - | - | - | - |
| 1778098599 | 30.56° C | 71% | 990.1 hPa | - | - | - | - |
| 1778096782 | 30.56° C | 72% | 989.8 hPa | - | - | - | - |
| 1778085277 | 31.67° C | 64% | 990.5 hPa | - | - | - | - |
| 1778080433 | 32.22° C | 64% | 990.6 hPa | - | - | - | - |
| 1778079222 | 32.22° C | 62% | 990 hPa | - | - | - | - |
| 1778078011 | 32.22° C | 63% | 989.6 hPa | - | - | - | - |
| 1778076800 | 32.22° C | 63% | 989.5 hPa | - | - | - | - |
| 1778076194 | 32.22° C | 63% | 989.3 hPa | - | - | - | - |
| 1778074983 | 32.78° C | 61% | 989.1 hPa | - | - | - | - |
| 1778073772 | 32.78° C | 66% | 988.7 hPa | - | - | - | - |
| 1778072561 | 32.78° C | 67% | 988.5 hPa | - | - | - | - |
| 1778070744 | 32.78° C | 65% | 988.3 hPa | - | - | - | - |
| 1778066502 | 32.78° C | 57% | 987.4 hPa | - | - | - | - |
| 1778065896 | 32.78° C | 57% | 987.3 hPa | - | - | - | - |
| 1778064685 | 32.78° C | 58% | 987.3 hPa | - | - | - | - |
| 1778063474 | 32.78° C | 57% | 987 hPa | - | - | - | - |
| 1778062868 | 32.78° C | 58% | 987 hPa | - | - | - | - |
| 1778062263 | 32.78° C | 55% | 987 hPa | - | - | - | - |
| 1778060446 | 32.78° C | 57% | 987 hPa | - | - | - | - |
| 1778059235 | 32.78° C | 57% | 987.1 hPa | - | - | - | - |
| 1778058024 | 32.78° C | 60% | 987.1 hPa | - | - | - | - |
| 1778057418 | 32.78° C | 59% | 987.1 hPa | - | - | - | - |
| 1778056207 | 32.78° C | 59% | 987.4 hPa | - | - | - | - |
| 1778054996 | 32.78° C | 60% | 987.7 hPa | - | - | - | - |
* Rain since midnight (hover to see other rain measurements)
** Current wind speed in m/s (hover to see current wind gust speed)